Theta_e
292 293 293 294 293 293 293 294 294 294 296 296 294 296 298 299 297 297 305 310 307 306 307 309 312 318 319 314 319 319 317 317 319 323 321 321 326 332 333 339 343 343 342 346 347 346 345 345 345 345 345 346 349 351 350 351 351 352 354 354 354 354 354 354 357 358 358 359 358 359 358 359 358 357 357 357 357 358 358 357 356 357 358 357 358 359 360
291 292 293 294 293 293 293 293 294 295 295 296 297 298 300 299 300 302 303 306 306 306 308 314 315 319 318 316 319 320 321 316 320 319 318 316 318 323 330 336 337 343 344 345 348 348 348 345 345 344 345 347 348 348 349 349 351 352 354 354 354 353 354 355 358 359 359 359 359 359 359 359 359 358 358 358 357 357 357 357 358 358 359 358 358 358 358
290 292 293 294 294 293 292 294 295 295 296 297 300 303 307 307 305 305 304 305 305 311 321 324 324 324 332 328 326 333 338 338 337 333 328 321 317 318 327 333 338 341 343 345 348 348 347 347 347 345 347 347 347 346 349 349 351 352 354 355 355 354 354 357 358 359 359 359 359 358 359 359 359 359 358 358 358 358 358 358 358 359 358 357 357 357 357
288 292 292 293 294 293 293 293 295 296 297 299 305 307 309 307 304 305 304 303 305 318 324 326 326 330 334 333 335 336 337 338 339 339 338 332 326 321 320 327 335 340 341 344 346 346 345 345 347 347 348 347 347 346 348 348 350 352 352 353 353 355 356 357 358 358 358 358 358 358 358 358 359 359 359 358 358 358 358 357 359 359 358 357 358 357 357
286 292 292 291 292 294 292 294 296 298 304 307 308 311 312 311 311 308 304 304 316 317 324 326 329 333 333 333 333 334 336 337 338 339 340 340 333 326 324 325 333 336 338 342 345 344 345 345 345 346 348 346 347 348 350 350 351 351 351 351 353 355 355 357 358 358 358 357 357 357 358 358 358 359 358 358 358 357 356 358 358 358 358 357 358 358 357
287 290 291 293 291 286 288 304 304 305 305 307 306 306 308 310 311 309 311 312 317 319 321 326 329 330 331 334 337 338 337 337 337 339 341 342 336 330 328 326 328 336 341 342 345 346 348 348 347 348 349 347 349 350 352 353 351 353 353 353 355 354 356 357 357 358 358 357 357 357 358 358 358 358 357 357 357 358 357 358 358 357 357 358 358 359 358
285 290 291 289 284 288 302 306 307 307 309 308 309 308 309 307 309 309 310 312 313 315 318 322 328 334 336 337 337 337 338 339 338 338 340 343 340 331 331 332 331 339 344 345 346 348 346 347 349 349 349 349 351 352 353 352 353 356 354 354 355 355 355 356 357 357 358 357 357 357 358 358 358 357 357 358 357 357 356 356 357 357 356 357 357 358 358
289 287 288 282 286 296 301 304 305 309 309 308 311 307 308 306 307 307 307 309 311 314 315 320 329 333 334 335 338 338 339 339 339 339 340 343 344 339 333 336 339 343 341 343 343 345 347 347 347 348 348 349 349 350 352 352 353 354 354 355 354 355 355 356 356 357 357 357 357 358 358 358 357 357 357 358 357 358 357 356 357 357 358 357 357 357 358
283 286 287 288 296 296 300 301 301 303 303 304 307 304 304 306 306 306 305 307 309 311 314 319 329 335 334 331 334 338 337 338 340 342 343 344 346 345 340 338 340 347 346 347 345 350 348 347 347 347 348 349 349 351 351 352 355 354 354 354 354 355 355 355 356 356 356 356 357 358 358 357 357 356 357 357 358 359 357 356 355 355 357 356 358 357 357
289 285 285 286 288 286 295 300 303 305 306 307 307 308 305 306 305 306 304 305 308 310 312 318 329 334 330 327 329 334 336 338 339 343 345 346 348 347 340 341 345 347 347 348 351 346 348 347 349 351 351 350 353 353 352 354 355 354 353 353 355 356 354 356 356 357 357 357 357 358 358 357 356 357 357 358 358 359 357 355 354 356 357 357 358 358 357
288 286 284 284 284 291 298 300 304 307 309 308 308 306 303 304 304 304 304 305 308 309 310 318 332 331 324 324 327 331 333 336 339 340 343 345 347 349 345 340 341 343 348 348 348 350 349 348 352 355 354 353 352 353 354 353 352 352 352 353 355 356 356 357 358 358 358 358 358 358 358 358 358 357 357 358 358 359 358 357 356 358 358 357 357 359 358
287 287 285 285 290 287 298 303 305 308 311 309 307 297 298 302 304 303 304 305 307 309 310 320 324 322 321 322 326 332 334 335 337 338 340 342 345 348 349 345 345 350 353 352 347 348 346 350 352 354 353 351 351 352 353 352 351 352 353 356 357 358 358 359 359 359 359 360 360 358 358 359 360 359 360 359 359 359 358 358 357 357 357 358 357 357 358
286 287 287 290 291 299 304 304 306 309 310 307 298 295 299 305 305 305 304 307 308 309 309 313 315 319 322 324 327 331 331 331 333 337 340 342 345 346 348 350 351 348 349 348 346 346 350 355 352 352 351 350 352 354 354 353 352 353 357 360 360 361 361 360 360 360 360 360 360 359 360 360 360 360 360 359 359 359 358 358 358 358 358 358 357 358 358
284 287 287 287 292 302 304 307 309 307 304 296 296 302 308 306 305 306 307 307 308 308 309 310 314 319 323 324 327 326 326 328 330 333 337 341 344 347 348 351 352 352 347 350 350 350 354 351 351 352 353 353 353 355 353 353 355 357 361 363 363 363 363 361 361 361 361 362 362 360 362 362 362 361 362 361 361 360 359 359 359 359 360 359 358 358 359
289 289 287 286 283 297 305 306 305 305 298 296 303 307 307 307 305 306 307 308 308 308 307 310 312 315 317 321 322 323 325 326 328 330 333 335 338 342 345 347 349 351 353 353 351 350 348 349 350 351 351 353 353 354 353 356 357 359 361 361 363 363 363 361 362 362 363 363 362 361 362 363 363 362 363 362 362 362 361 360 360 359 359 358 358 357 359
286 286 285 285 294 300 305 303 294 299 300 303 305 306 303 306 306 305 306 307 308 309 308 309 310 312 312 315 319 321 322 325 326 329 331 333 335 338 343 346 347 350 351 352 352 353 349 351 353 353 352 355 355 355 355 360 361 361 362 362 363 362 362 362 363 363 363 364 364 364 364 365 364 363 363 363 362 362 362 360 359 358 357 358 357 356 356
290 290 293 296 300 303 304 304 301 302 303 304 305 305 304 304 304 307 305 305 308 308 308 309 309 309 308 310 315 319 321 323 324 327 329 330 332 335 338 342 346 348 349 351 352 353 356 359 358 358 358 357 357 356 363 364 363 362 362 362 361 361 360 361 363 363 364 364 364 365 366 366 364 363 364 364 361 363 361 360 359 357 357 358 357 357 356
295 297 298 299 298 301 302 303 304 303 304 305 305 305 304 304 306 306 305 304 307 307 308 307 309 307 307 307 310 316 321 321 323 327 328 330 333 335 337 340 343 346 348 349 350 351 353 357 360 363 362 361 359 362 363 365 365 365 364 362 361 360 361 362 362 363 363 364 366 366 366 365 364 364 363 362 361 362 361 359 359 358 357 357 357 358 357
290 288 296 296 297 299 303 302 304 305 305 305 306 305 305 305 306 306 308 306 307 308 308 306 307 308 307 307 308 312 320 321 322 325 326 328 331 333 335 338 342 343 345 345 346 348 349 352 355 357 360 362 363 363 364 365 366 368 366 364 363 364 364 363 364 363 363 361 362 364 365 364 364 365 364 364 363 361 361 359 358 358 358 358 357 356 357
290 291 294 297 298 300 304 305 303 303 304 304 304 305 306 306 308 306 307 308 306 308 308 307 307 307 307 307 307 308 316 321 322 324 325 326 328 332 335 338 341 343 344 345 345 346 347 350 352 354 356 358 360 362 364 365 365 366 365 364 363 363 363 364 364 365 364 363 364 363 364 364 363 363 364 364 363 362 360 360 359 358 358 357 357 358 357
293 296 297 297 298 301 302 304 306 306 303 303 304 305 305 306 306 306 307 308 307 307 309 309 308 307 308 308 309 309 314 320 322 323 324 326 328 330 332 336 342 342 344 345 345 345 346 349 351 353 354 356 359 363 364 366 368 366 364 365 366 364 363 362 361 362 363 364 363 363 365 367 345 336 350 364 364 364 365 366 364 361 360 360 361 362 361
288 290 292 296 290 291 296 300 302 303 304 303 304 305 304 304 305 306 305 306 308 308 310 310 308 307 308 309 310 310 311 317 322 323 324 325 327 329 331 335 340 343 344 346 346 345 346 349 350 351 352 354 357 358 363 367 371 367 363 364 367 367 366 365 364 362 362 362 362 361 362 353 341 329 308 299 310 347 367 339 333 329 334 362 363 363 362
287 294 296 297 297 296 297 299 302 303 304 303 302 302 303 305 306 307 306 305 306 307 310 312 310 308 308 309 309 309 310 315 322 323 323 324 326 327 329 332 335 339 342 344 345 345 346 348 349 349 350 351 354 356 359 362 367 369 369 367 365 365 364 365 362 365 364 363 365 364 359 353 350 344 340 329 300 295 304 309 307 309 312 313 317 329 359
296 298 297 298 297 295 297 300 302 303 304 304 303 304 305 305 305 306 306 307 306 307 310 311 312 310 310 310 309 309 311 316 320 322 323 325 326 327 328 330 332 335 338 340 341 342 344 345 346 348 348 348 351 354 357 359 361 365 368 367 366 365 366 364 362 364 364 362 360 358 355 354 353 350 349 345 336 305 297 300 299 294 293 295 301 309 315
293 298 298 299 299 299 300 301 302 304 306 306 304 304 305 305 306 307 306 306 309 309 310 310 311 312 311 310 310 311 311 316 319 322 323 326 326 325 325 328 329 330 333 336 340 342 343 345 346 346 346 346 349 352 355 358 360 362 363 365 365 364 364 362 361 361 359 358 357 357 355 353 353 354 353 349 342 331 318 300 297 296 296 296 294 295 302
299 298 299 300 300 301 302 303 304 306 307 307 306 305 307 309 309 308 307 308 308 311 312 311 310 311 314 311 311 313 312 314 317 321 321 322 324 324 322 324 328 330 332 334 336 338 339 342 343 344 342 342 345 349 351 356 359 360 361 362 363 363 362 362 361 360 359 359 357 356 356 356 355 355 356 354 349 340 334 331 328 314 304 297 296 297 295
299 300 299 298 298 299 301 299 300 305 307 308 307 306 306 307 309 309 311 311 311 313 314 313 312 312 313 313 313 313 314 314 316 318 319 321 322 322 322 322 326 328 329 331 333 334 335 337 339 341 341 340 342 346 348 352 356 357 357 358 358 353 352 356 361 360 359 358 357 357 355 355 354 355 356 353 348 346 345 343 339 330 322 315 302 298 304
298 299 300 295 294 296 298 302 305 307 308 308 308 307 307 307 307 306 305 306 308 312 314 314 313 312 311 312 312 312 316 313 313 316 317 319 321 323 324 326 328 327 328 329 329 329 332 335 336 339 339 340 342 345 346 348 353 353 353 354 354 354 354 353 356 360 358 357 357 356 355 355 357 354 350 348 347 345 339 337 329 323 318 315 312 305 300
298 298 299 300 300 301 303 304 303 305 307 309 309 307 306 305 304 304 304 306 309 310 310 313 314 314 313 311 314 315 315 315 315 316 318 319 321 321 323 325 328 327 327 327 325 326 328 331 335 337 338 339 340 344 345 346 349 349 349 349 350 349 350 350 351 352 353 355 355 354 344 347 348 346 343 341 339 338 337 332 327 323 320 319 320 321 317
298 299 299 299 299 300 300 299 300 302 305 307 306 305 306 304 302 303 306 307 309 308 310 311 311 311 313 312 313 314 314 316 317 317 318 318 320 321 321 323 326 325 325 323 323 324 326 327 331 334 336 339 341 343 343 345 346 348 347 347 347 346 347 348 348 347 347 346 342 336 343 342 341 339 337 336 335 335 333 330 327 325 325 326 324 326 325
298 299 299 299 299 299 298 299 300 301 303 306 307 305 305 305 303 302 303 305 308 309 310 310 311 311 312 312 313 316 318 317 315 316 317 319 320 320 319 320 319 318 318 319 321 323 324 326 329 330 333 337 338 340 341 342 343 344 344 342 340 327 325 330 336 346 343 342 341 342 340 338 336 335 334 334 334 333 331 330 329 328 328 327 327 326 326
296 297 297 297 297 297 298 299 299 300 301 304 306 305 304 303 302 302 302 303 304 305 306 307 307 308 310 312 315 319 318 316 314 315 316 318 319 319 319 318 319 319 318 319 321 322 324 326 327 328 332 335 336 337 338 339 341 341 340 339 340 339 333 330 338 339 341 341 341 341 339 337 335 335 335 332 330 328 329 329 328 327 327 326 325 326 328
295 294 294 294 296 296 296 298 298 299 301 302 304 306 307 305 304 303 304 305 306 307 307 307 309 311 312 314 315 314 315 316 315 314 314 315 316 317 318 319 319 319 319 319 320 322 323 323 325 329 331 333 334 335 335 336 337 337 337 338 337 336 334 329 330 338 340 341 341 339 337 334 333 333 331 329 328 327 325 324 323 323 322 322 322 322 320
296 295 295 296 296 295 295 296 298 299 301 302 304 305 306 307 307 306 305 307 307 307 308 309 310 314 315 314 311 311 311 312 314 313 311 312 314 316 317 319 319 320 320 320 320 320 321 324 325 327 328 329 331 332 333 334 335 335 335 335 334 333 334 334 332 335 334 334 334 333 332 330 328 327 327 326 326 325 323 322 321 320 319 318 317 316 309
300 300 300 300 300 299 299 298 298 299 300 300 302 304 305 306 307 309 310 309 309 309 310 312 313 314 313 312 311 310 309 308 308 309 310 311 312 313 315 317 318 319 319 319 318 318 320 323 324 325 326 327 328 328 330 331 333 332 332 332 333 332 330 330 330 328 327 327 327 326 325 323 322 323 323 323 322 322 321 320 319 318 317 316 316 316 314
300 299 300 300 300 300 300 299 300 300 300 300 302 303 303 304 306 306 307 309 310 312 313 313 312 312 311 310 309 309 309 310 310 310 310 310 311 313 313 314 315 315 316 317 316 317 319 320 323 323 324 325 326 326 326 327 329 329 329 328 327 326 324 323 322 323 322 321 320 320 319 319 318 317 317 318 318 318 318 317 316 315 314 313 313 313 313
301 300 300 300 301 301 300 300 300 300 300 301 301 302 302 303 304 306 307 307 308 309 310 310 310 308 308 308 309 309 309 309 309 309 310 311 312 311 311 311 312 313 314 313 314 316 317 318 320 321 322 323 322 323 324 323 325 325 325 324 324 327 323 320 319 317 316 317 316 316 316 315 314 314 314 313 312 312 312 312 311 312 311 311 312 312 312
301 301 301 300 300 301 301 301 301 301 301 301 301 303 304 303 304 304 305 306 307 308 309 308 308 308 308 308 308 307 308 308 308 309 309 309 310 310 309 309 308 310 309 309 313 315 317 318 318 319 319 319 319 319 319 318 321 322 323 323 324 321 318 317 315 314 313 312 312 311 311 310 310 309 309 309 309 309 308 308 308 308 308 308 308 307 307
300 301 301 301 301 301 301 301 302 302 301 300 300 301 303 304 304 304 304 304 306 308 307 307 307 307 306 306 305 306 306 307 308 308 308 308 309 308 307 308 309 310 311 313 313 313 315 315 315 316 317 316 316 315 316 317 319 324 323 321 318 317 315 314 313 311 311 310 309 308 307 307 306 306 306 306 306 306 307 306 306 305 305 304 304 304 304
300 301 301 301 300 300 300 301 301 301 302 302 301 300 302 303 303 303 303 303 304 306 306 306 305 304 305 304 304 305 305 306 307 307 307 308 308 308 308 308 309 311 312 314 313 313 314 314 312 312 313 314 316 314 315 314 313 314 316 314 313 312 311 311 309 308 307 307 306 307 304 304 304 303 303 303 303 303 303 303 303 303 302 302 302 302 303
300 300 301 302 301 301 300 300 300 301 302 302 302 302 303 302 303 302 301 302 303 304 305 305 304 304 304 304 304 304 306 307 307 306 307 307 306 306 304 304 308 311 311 312 312 312 312 312 312 310 311 312 312 313 314 314 314 311 309 308 309 309 308 307 306 305 305 304 304 303 302 302 301 301 301 300 301 300 301 301 301 300 300 300 301 301 301
301 301 301 302 301 301 301 301 301 301 301 302 303 303 303 304 303 301 302 303 303 303 303 304 305 303 303 303 304 304 305 306 306 306 306 305 304 304 304 305 310 312 312 311 310 310 309 309 310 311 310 310 311 311 311 310 310 310 309 309 309 309 308 308 306 305 305 303 302 302 302 301 300 300 300 299 299 299 299 299 299 299 299 299 300 300 300
302 301 302 301 301 301 301 301 301 301 301 302 303 303 303 304 303 303 302 302 302 302 302 302 302 303 303 302 302 301 302 304 305 306 306 306 307 307 306 306 309 311 312 311 309 308 308 308 309 309 310 309 309 310 309 307 307 307 307 307 307 306 306 306 305 304 303 302 302 302 302 301 301 300 300 299 299 300 300 299 298 298 298 298 298 299 299
303 302 303 302 301 301 302 301 301 301 300 301 303 304 303 302 303 303 302 302 301 301 300 300 301 301 302 302 301 300 301 301 302 304 305 305 306 308 310 309 310 310 310 310 309 308 307 307 307 308 310 309 308 308 306 305 305 306 306 306 305 305 305 304 303 302 301 301 301 300 300 300 300 300 299 299 298 298 298 298 299 298 298 298 298 298 298
305 304 303 302 302 301 300 301 300 300 301 302 303 303 303 303 302 302 302 302 302 301 302 300 300 301 301 301 302 301 302 302 302 302 301 301 301 303 309 310 310 310 310 309 309 308 306 306 307 309 307 307 307 306 304 304 304 304 304 304 305 305 305 304 303 302 301 301 300 300 300 299 298 298 298 298 298 297 297 297 297 298 298 297 298 298 298
305 305 303 302 302 301 302 302 303 303 303 302 301 302 303 303 303 303 303 302 302 301 302 301 300 300 300 301 302 303 303 303 303 304 304 304 303 304 308 309 310 309 309 309 308 307 307 308 306 305 305 305 305 303 302 303 303 302 302 302 302 303 303 302 302 301 300 300 299 299 299 298 298 298 298 297 297 297 297 298 297 297 297 297 296 296 296
305 305 305 304 305 304 304 304 303 303 302 301 300 300 302 303 303 303 303 303 303 302 302 302 301 301 301 301 301 301 301 301 302 303 305 305 307 307 308 308 308 308 308 307 306 306 306 307 307 305 305 306 304 301 301 301 300 300 300 300 300 300 301 301 303 304 303 302 301 300 301 300 299 298 299 299 299 298 297 297 296 297 297 298 298 298 297
304 304 304 305 306 307 306 304 302 301 301 301 302 303 303 303 302 303 303 303 302 302 302 301 302 302 302 302 303 303 303 302 298 300 304 305 305 306 306 306 306 307 307 307 306 306 306 306 305 305 305 305 304 302 301 301 301 300 300 299 299 299 299 299 299 300 300 300 300 300 299 300 299 299 299 299 299 299 299 298 298 297 297 297 297 297 297
304 304 304 305 305 306 305 304 302 302 301 303 303 303 303 303 303 302 302 302 302 301 301 301 301 301 302 303 303 303 305 305 302 300 304 305 304 305 305 307 307 306 306 304 303 304 306 305 304 304 304 304 302 302 301 301 301 302 301 300 300 299 298 298 298 299 299 299 299 299 300 299 300 300 299 299 299 299 299 299 299 298 297 297 297 297 296
304 304 304 304 305 305 303 302 302 302 303 304 303 303 303 302 301 300 302 302 301 301 300 300 300 301 302 301 302 303 305 305 305 305 305 305 304 304 305 305 306 305 305 304 304 304 305 305 304 304 303 302 301 301 301 301 301 301 301 301 301 300 299 298 299 299 299 300 299 300 300 300 299 299 299 299 298 298 298 297 297 297 296 297 297 296 296
304 303 303 304 305 305 305 305 304 305 305 303 303 304 303 301 301 301 301 301 301 301 299 299 300 301 301 301 301 302 303 304 305 305 305 305 304 304 304 304 304 304 303 303 303 302 302 302 301 301 301 301 300 301 301 300 300 300 300 300 300 301 301 301 301 300 301 300 300 300 300 300 300 300 299 299 299 299 299 299 299 298 298 298 298 298 297
302 303 304 304 304 304 303 303 305 305 305 304 303 302 302 301 301 300 301 301 301 300 300 300 298 300 301 301 301 301 302 302 304 305 305 305 304 304 304 303 303 303 302 301 301 301 302 303 303 302 301 300 300 300 301 301 299 299 299 300 300 299 300 300 300 300 300 300 301 300 300 300 300 300 300 299 299 299 299 299 299 298 298 298 298 297 297
Wind_Speed
13 12 10 6 7 8 8 10 12 12 8 5 7 9 10 9 7 5 7 5 9 3 9 9 10 7 9 11 6 4 7 8 7 5 6 8 9 10 13 13 14 15 16 15 16 17 18 19 19 20 18 18 16 16 17 17 18 19 18 17 18 18 17 17 16 16 16 15 14 15 15 14 15 15 14 14 14 13 13 13 12 14 14 13 13 13 13
13 12 8 8 11 10 10 10 11 11 11 10 9 11 11 13 11 8 15 15 11 4 7 8 9 10 10 11 9 6 5 6 7 8 8 11 12 12 11 14 17 16 17 17 16 17 16 20 20 20 18 17 18 19 19 20 19 18 16 17 18 18 18 16 15 15 15 14 14 14 14 14 14 14 13 13 13 14 14 14 13 12 13 13 13 13 13
11 11 10 11 11 11 10 10 11 11 10 10 9 10 11 11 12 14 16 16 13 4 2 8 11 9 8 7 7 8 7 7 7 8 11 13 14 16 14 13 16 17 18 17 16 16 18 18 19 20 17 18 19 21 19 19 18 18 18 16 16 17 17 16 15 15 14 14 13 14 14 13 13 13 13 12 12 13 13 13 14 12 12 13 13 13 13
9 6 9 8 7 8 12 14 13 11 9 8 3 3 2 4 4 5 7 10 7 2 9 9 9 6 3 4 7 7 7 9 9 11 13 13 14 16 17 16 15 16 18 16 17 20 21 22 20 18 16 17 18 20 19 20 19 18 18 18 18 16 16 14 15 15 14 14 14 14 13 14 14 14 13 13 13 13 13 14 13 12 13 14 13 13 12
10 5 1 3 6 9 11 15 13 10 8 4 3 3 3 4 4 7 8 7 7 9 9 10 5 3 2 2 3 6 8 9 11 12 14 14 15 16 16 16 15 16 18 19 21 22 22 21 21 22 20 20 19 19 19 18 17 18 18 19 17 16 15 15 15 15 14 15 15 14 15 15 14 13 14 14 14 14 15 14 12 13 13 13 14 13 13
5 1 3 3 5 10 9 5 4 12 9 8 6 4 5 7 6 5 8 10 12 12 11 8 5 2 1 2 3 4 6 9 12 13 13 14 15 15 15 16 17 16 15 15 18 20 20 23 24 21 21 21 17 16 15 14 18 16 16 16 15 15 15 15 15 15 15 15 15 15 14 14 14 14 14 15 14 13 12 12 13 13 14 14 13 13 13
5 5 5 6 10 9 7 5 5 3 5 3 7 8 11 11 13 14 13 13 14 14 12 12 11 8 4 2 4 6 8 9 10 14 14 13 12 13 13 13 15 14 15 14 15 15 16 18 15 15 15 14 14 15 15 17 15 13 14 15 14 15 15 15 14 15 15 15 15 15 15 15 14 15 15 14 14 13 13 13 13 13 14 15 14 14 14
8 6 6 6 6 4 3 3 8 6 2 5 7 7 10 15 13 12 12 14 15 15 15 14 11 9 10 8 4 8 9 10 11 13 13 13 12 12 12 12 12 11 16 16 18 18 17 17 17 17 17 16 17 16 16 16 15 14 15 14 15 14 15 16 17 16 16 16 15 15 15 14 15 15 14 14 14 13 12 13 12 12 12 13 13 14 14
7 6 7 8 6 3 5 5 3 5 2 4 3 7 5 12 12 13 12 15 16 18 16 15 13 8 7 6 5 9 11 12 12 12 13 13 13 12 11 11 10 8 9 10 12 11 13 16 17 18 17 17 17 16 17 16 15 15 15 15 16 16 16 16 16 16 16 16 15 15 15 15 15 15 14 14 13 12 12 13 12 13 13 13 12 13 14
10 8 5 3 4 6 5 5 5 3 5 6 7 1 5 11 14 13 14 15 16 18 18 17 15 9 6 5 4 11 13 13 12 11 11 11 11 9 8 7 8 10 11 12 13 15 15 15 15 14 16 16 15 16 16 15 15 16 17 17 16 16 16 16 16 16 16 16 15 15 15 16 16 14 14 13 13 12 13 14 14 13 12 12 13 13 14
5 10 8 4 5 3 4 3 8 6 5 7 6 5 4 7 12 15 15 16 17 15 16 17 11 5 5 3 7 11 15 12 11 12 11 11 11 10 6 4 11 12 12 14 16 15 16 14 13 13 15 16 16 15 15 16 17 18 18 17 17 17 17 16 16 16 16 16 16 16 15 15 15 15 15 14 13 12 13 13 13 12 12 12 12 12 14
9 9 8 4 3 0 2 8 10 9 7 5 6 9 5 8 11 13 16 15 16 17 18 14 10 11 4 7 8 13 14 10 12 12 13 13 13 12 7 4 4 11 12 14 16 17 18 16 15 15 16 16 17 16 16 17 18 18 18 17 17 16 16 16 16 15 15 15 15 16 15 15 14 14 13 13 13 12 12 12 12 12 12 12 13 12 12
10 12 8 5 2 1 6 11 14 11 6 4 8 6 4 5 8 11 14 12 13 12 14 13 10 9 8 9 12 13 10 13 14 13 12 12 12 11 11 8 3 8 12 15 16 18 15 14 16 17 16 16 15 15 15 17 18 19 17 15 15 14 14 15 15 16 14 15 16 16 15 15 14 13 12 12 12 12 13 12 12 12 13 12 12 12 12
10 9 10 4 1 4 9 11 9 9 3 7 4 5 2 5 8 11 11 12 12 13 13 11 9 10 12 12 11 10 13 12 12 14 14 14 14 12 11 12 8 2 6 8 13 14 13 16 17 16 15 15 14 14 15 18 19 16 13 13 13 13 13 14 15 15 15 14 15 14 14 12 12 12 11 12 12 12 12 11 12 12 12 11 11 11 11
7 8 7 2 3 4 12 14 3 10 2 4 4 2 5 6 8 9 11 10 11 13 13 15 13 13 13 12 12 13 11 13 14 14 15 15 15 15 14 12 11 6 5 6 7 11 14 17 16 16 18 16 15 15 17 16 14 12 12 13 12 13 13 14 13 14 14 15 14 12 12 13 13 13 12 12 12 11 12 12 12 13 13 14 13 12 11
6 8 6 1 4 6 10 7 4 4 5 6 7 4 3 6 7 7 9 10 12 12 11 13 14 13 12 13 16 15 15 15 15 15 16 16 16 15 14 12 10 8 7 6 7 7 9 11 12 13 16 14 14 15 15 10 10 10 11 12 12 13 12 13 13 13 14 14 14 13 13 13 13 13 12 12 12 11 13 12 11 13 14 13 14 14 14
3 1 3 5 5 5 5 5 5 5 4 5 7 6 5 6 6 6 6 10 13 12 13 12 12 12 14 14 13 13 13 13 14 15 14 13 13 14 15 15 12 10 8 9 8 8 6 7 7 9 10 12 13 13 8 9 10 12 12 12 12 12 13 13 13 13 12 13 14 13 13 13 12 12 13 12 12 13 14 14 13 14 13 13 13 13 13
8 5 3 4 6 6 3 4 4 4 3 4 6 8 7 7 5 6 7 10 12 13 13 12 12 11 13 14 15 15 16 15 15 15 16 17 16 16 16 17 16 11 11 11 12 11 10 8 7 6 7 9 10 7 7 8 10 10 11 12 12 13 12 12 13 13 13 13 13 13 13 12 13 12 13 12 12 12 14 14 14 14 14 13 13 13 13
4 4 4 8 10 10 4 4 3 3 2 3 5 6 6 6 7 8 7 9 12 12 13 13 13 14 14 14 13 13 15 18 17 16 15 15 14 15 16 16 15 12 12 12 13 12 12 9 8 8 8 7 7 7 7 7 8 8 10 10 10 10 10 11 11 12 13 12 12 12 13 12 12 12 11 11 11 11 12 12 14 14 14 14 14 13 13
3 4 7 7 12 6 5 3 1 2 3 6 6 6 6 5 6 8 8 9 12 12 11 13 14 14 12 14 14 13 14 15 16 14 14 14 14 14 14 15 16 14 13 13 12 12 10 9 9 8 8 7 7 8 8 7 7 8 8 9 9 10 11 9 8 9 10 11 11 10 11 12 12 12 11 11 11 12 12 12 14 14 14 14 14 13 13
7 5 2 10 12 2 5 3 3 3 6 8 9 6 7 6 6 8 10 8 10 12 12 13 14 16 15 12 13 13 12 14 15 15 15 14 13 13 15 14 14 13 12 12 12 12 10 9 8 8 8 6 6 6 7 8 9 9 8 8 8 8 7 7 7 7 7 8 9 9 8 6 3 3 2 8 10 11 11 11 12 12 12 11 10 10 11
3 5 8 13 8 5 6 9 9 10 10 10 11 9 7 7 8 8 10 11 10 13 12 12 13 15 14 14 13 12 12 13 14 15 16 14 14 13 13 12 13 13 13 12 11 11 9 8 8 8 8 7 6 5 4 3 5 8 10 8 7 6 6 7 7 7 8 8 9 9 7 6 5 4 6 7 7 2 5 4 2 2 3 9 9 9 10
6 10 10 8 8 11 14 13 14 12 11 12 13 12 8 7 8 7 8 10 11 11 12 10 11 14 14 16 14 12 11 12 13 12 15 14 13 13 13 13 15 13 12 12 11 11 9 8 8 8 8 7 7 6 6 4 3 5 5 5 5 5 5 5 6 6 6 7 8 5 5 6 7 7 5 6 14 12 8 6 5 5 5 7 8 6 6
7 8 11 10 8 9 12 14 15 15 13 13 14 12 9 8 8 9 8 7 9 11 12 11 8 11 14 15 13 13 12 10 14 14 14 15 14 13 12 12 13 13 12 12 11 10 9 9 9 9 9 9 8 7 6 5 4 3 3 4 4 4 3 4 5 4 5 6 8 6 5 6 7 7 7 6 4 12 13 10 11 11 10 10 9 8 10
9 11 11 11 12 13 12 13 13 13 12 11 12 12 9 8 7 7 8 8 9 11 10 11 10 8 11 15 14 11 11 11 12 13 12 14 14 12 12 13 13 12 11 9 9 8 8 9 9 9 9 9 8 8 7 5 4 3 3 3 4 4 4 5 5 6 6 6 7 8 9 10 9 9 8 8 7 5 7 12 15 15 16 14 12 9 10
10 11 12 13 10 8 8 10 10 9 10 9 9 9 9 9 9 9 10 9 8 8 8 10 10 10 9 12 14 16 15 13 11 10 11 12 12 10 11 12 12 11 9 9 9 9 9 9 8 8 9 9 9 8 7 6 4 3 3 3 3 2 3 4 5 5 5 6 6 7 8 9 9 10 9 8 8 8 7 5 6 10 15 17 14 12 13
11 12 15 13 10 14 10 10 10 14 13 11 11 11 9 6 8 7 7 8 9 9 8 8 9 9 9 9 12 13 16 18 11 9 10 12 13 10 8 9 10 10 9 9 9 10 9 7 7 8 8 8 8 7 6 6 3 3 4 4 4 5 5 2 3 4 4 5 5 5 6 7 8 9 8 6 7 8 7 8 6 5 4 7 13 12 9
12 12 11 10 11 14 16 16 14 12 11 9 9 10 10 6 4 5 7 8 8 7 5 5 6 8 9 9 9 10 12 16 16 12 10 11 10 10 9 9 9 9 8 10 10 10 10 8 7 7 8 8 7 6 6 5 2 2 2 3 4 3 4 3 3 3 4 4 4 5 5 5 6 6 5 6 6 5 5 7 8 8 7 7 6 8 13
16 15 12 10 10 11 11 9 11 13 13 10 8 7 8 8 7 6 6 6 6 5 5 4 4 6 6 9 7 7 8 10 12 15 13 10 9 9 10 9 7 7 8 9 10 10 10 10 9 7 7 7 7 6 5 4 3 3 3 4 3 3 3 2 2 3 3 4 4 4 4 4 5 5 5 5 5 6 6 7 8 8 9 8 9 11 10
16 16 15 15 15 15 15 14 14 14 13 11 8 7 6 6 5 4 4 4 4 4 4 4 4 6 6 7 7 6 8 10 9 9 12 12 10 9 10 9 6 7 8 10 11 10 10 10 10 10 9 9 6 6 6 5 5 5 5 6 5 4 2 3 4 4 4 4 6 7 6 5 5 5 5 5 5 5 7 8 9 10 10 9 11 12 13
15 15 17 16 16 16 15 14 13 14 13 13 9 7 6 3 3 2 1 2 3 3 3 3 4 6 7 8 8 7 3 6 6 7 7 9 9 10 11 11 10 10 9 9 9 9 9 9 9 10 11 10 7 6 6 6 5 5 5 5 6 8 8 6 4 4 4 5 5 5 6 6 5 6 6 6 6 6 7 9 9 9 9 10 11 11 11
14 14 16 16 16 16 16 15 15 15 15 13 12 9 7 5 2 1 1 1 1 1 2 4 5 7 7 7 8 7 4 3 4 5 5 6 7 8 8 9 10 10 9 9 9 9 8 8 8 9 9 9 9 7 6 5 5 5 6 6 5 4 6 6 4 6 5 5 6 6 6 6 6 6 7 7 7 8 6 6 8 8 9 10 10 9 9
15 13 13 17 18 17 17 16 15 16 16 13 11 11 9 4 3 2 2 2 2 2 3 4 5 5 6 4 4 4 3 2 2 3 5 6 7 7 8 6 5 7 8 9 9 8 8 8 8 8 7 7 7 7 7 6 5 5 5 5 5 5 6 8 7 5 6 6 6 7 7 7 6 7 7 7 10 11 11 10 9 7 8 9 9 8 7
15 14 14 15 14 13 14 14 15 14 12 12 12 12 12 10 5 4 3 2 2 3 3 3 3 3 3 2 1 0 2 3 3 3 4 5 5 6 5 5 5 5 6 7 9 9 9 10 9 8 8 7 7 6 7 7 5 5 5 5 5 5 5 5 6 7 7 8 8 9 9 9 9 9 8 8 9 10 12 11 11 9 7 8 9 8 10
12 13 13 13 14 16 15 13 13 13 13 14 15 14 12 12 12 9 6 4 4 3 3 2 1 3 4 3 2 2 2 2 2 3 4 5 5 6 6 6 6 6 6 7 8 8 10 10 10 9 8 8 8 7 6 6 4 5 6 6 7 6 7 7 7 7 7 8 9 10 10 10 9 10 10 9 9 9 10 12 13 13 10 9 9 9 10
12 13 13 13 14 15 15 15 15 15 14 14 14 14 14 15 15 12 12 10 7 6 5 5 6 6 7 6 6 5 5 5 4 4 4 5 4 3 4 7 7 6 6 5 8 8 9 9 13 13 7 7 7 7 7 5 4 5 5 6 7 8 8 8 8 8 8 8 9 10 11 13 13 12 11 10 9 8 8 10 10 10 10 9 9 10 9
11 11 11 12 13 15 16 15 15 15 15 15 16 15 17 17 15 13 12 11 10 9 8 7 8 9 8 8 7 7 7 6 6 6 5 6 7 6 7 7 8 8 7 6 7 8 8 8 12 11 7 5 6 6 8 9 4 4 5 6 7 7 8 8 8 9 9 10 11 11 11 11 10 11 11 10 9 8 8 8 9 9 9 9 10 10 10
10 10 11 12 12 14 15 15 15 15 16 17 16 15 17 14 14 14 14 15 13 11 10 10 10 9 8 8 8 9 8 8 8 8 8 8 8 7 8 7 7 6 6 6 6 5 6 8 10 7 5 5 5 6 8 11 7 5 6 7 7 8 8 9 9 9 10 10 11 11 12 11 11 10 10 9 9 10 10 9 9 9 9 9 10 10 10
9 9 10 10 11 13 14 14 15 15 16 17 15 13 14 15 14 14 16 17 15 14 12 11 11 11 11 11 10 10 10 9 10 9 9 9 9 10 9 9 8 8 7 6 5 4 6 7 7 7 6 6 6 6 8 10 9 6 7 7 9 9 9 9 9 10 10 10 10 11 12 12 12 13 12 11 11 11 11 10 10 9 9 8 9 10 10
6 7 9 10 11 13 13 13 14 15 14 15 15 15 14 14 13 14 15 16 16 15 12 11 12 11 10 10 10 10 10 12 10 11 10 9 8 8 8 9 11 9 9 10 7 6 8 12 8 6 6 6 6 6 7 8 7 6 6 8 8 9 9 9 8 9 9 10 13 15 14 14 13 13 12 13 13 12 11 11 10 9 9 8 8 9 10
3 5 7 8 9 10 12 12 13 13 13 14 14 14 13 13 14 14 13 13 14 16 15 13 11 10 10 10 11 12 12 12 12 12 10 10 9 9 10 10 11 9 8 8 7 8 9 9 8 7 6 7 7 8 6 9 8 7 7 7 8 9 10 10 9 9 9 10 10 11 12 13 14 15 13 13 14 13 13 12 11 10 9 10 9 8 8
1 3 5 6 8 9 10 11 12 13 13 13 14 15 15 16 15 14 13 13 13 13 13 14 18 14 12 11 11 10 10 11 12 12 13 13 10 8 8 10 10 9 12 11 10 9 8 8 8 8 7 7 7 13 12 9 7 8 8 9 10 10 10 10 10 9 8 8 9 10 10 11 12 12 12 12 12 13 13 13 11 11 9 9 9 9 9
5 3 2 4 6 8 8 10 11 12 12 11 11 13 13 14 14 13 13 13 13 12 13 12 13 15 13 11 12 13 13 10 10 11 11 12 12 12 10 9 8 9 15 10 9 7 8 7 8 7 11 9 9 13 12 8 8 8 9 9 10 10 10 9 9 10 11 11 11 10 10 10 10 10 10 10 10 10 10 12 13 12 11 10 9 9 8
3 1 2 2 4 6 6 8 10 11 11 11 10 10 11 12 12 13 14 13 13 13 12 12 14 13 12 12 13 12 11 13 13 9 8 9 10 13 12 10 9 13 21 11 9 8 8 8 8 13 18 17 17 15 10 9 10 10 10 10 10 10 10 10 10 10 10 11 11 11 12 13 12 12 12 11 10 10 11 10 8 8 8 9 12 12 10
3 3 3 2 2 3 5 6 8 9 8 9 10 10 10 10 12 13 13 13 14 13 12 11 10 11 12 12 11 10 10 10 9 10 10 11 13 12 11 13 13 11 14 16 9 9 9 10 14 19 17 19 19 16 10 11 11 12 11 11 11 11 11 12 12 12 12 13 13 13 13 13 12 12 12 13 13 12 12 12 11 9 9 8 8 7 7
4 4 4 1 1 1 2 3 4 5 7 8 9 10 9 8 9 11 12 12 13 12 11 11 11 11 12 12 10 8 9 9 10 9 10 10 11 10 11 13 10 13 20 19 10 10 10 21 22 20 20 19 17 13 11 11 12 11 12 13 13 12 11 11 12 11 10 11 11 12 13 12 11 10 10 10 11 11 12 13 12 12 12 11 11 9 8
3 3 1 1 1 1 0 1 2 4 5 6 7 7 7 8 8 8 10 11 11 11 10 10 10 10 10 12 12 10 9 8 9 10 9 8 10 13 14 18 18 21 17 13 12 12 12 14 18 22 22 22 19 12 12 11 12 11 11 11 11 11 11 12 12 12 12 12 12 13 13 12 12 12 11 11 11 10 9 10 10 11 10 10 10 9 9
2 2 2 1 1 2 2 2 1 2 4 4 4 4 5 6 7 7 7 8 10 11 12 11 9 10 11 10 10 10 10 8 11 11 8 8 8 11 12 11 14 20 19 17 19 20 27 25 25 23 23 20 13 11 12 12 12 11 11 11 11 10 10 9 10 10 11 11 10 10 10 10 11 10 10 10 10 9 9 9 9 9 8 9 9 9 10
1 2 1 0 0 1 2 3 2 2 2 2 2 3 3 4 5 6 7 8 8 8 9 11 12 11 10 11 11 10 9 8 8 8 8 8 8 10 12 15 20 19 13 11 12 11 19 23 22 22 21 17 11 11 12 12 12 12 11 11 11 11 10 10 9 9 9 10 10 10 10 11 10 10 10 10 9 9 9 9 8 8 8 8 8 8 8
1 0 1 1 1 0 1 1 1 1 2 2 2 2 2 3 5 6 5 6 7 7 7 7 8 9 9 8 8 9 9 9 9 8 8 9 10 9 10 11 12 17 17 12 12 11 15 20 18 17 13 10 11 11 10 11 11 11 11 12 12 11 11 12 11 12 11 10 10 10 10 10 9 10 9 9 9 9 9 9 9 10 12 9 8 7 7
3 3 2 2 2 2 2 1 2 1 1 2 1 2 2 3 5 4 5 6 6 6 7 7 7 7 7 8 8 8 9 9 10 11 9 9 11 13 13 10 11 11 12 11 10 9 9 10 10 10 10 10 10 11 11 11 10 10 10 9 10 9 9 9 9 9 9 8 8 8 8 8 8 8 8 8 8 8 7 7 7 7 7 7 7 6 6
2 3 2 3 3 3 3 3 2 2 3 2 1 2 2 3 4 4 5 6 5 6 6 6 7 7 6 7 8 8 8 8 9 9 10 10 10 8 11 13 9 10 10 9 9 9 9 10 11 13 12 9 9 9 11 13 10 9 9 9 9 9 9 8 8 8 8 8 8 8 8 8 7 8 8 7 7 7 7 7 7 7 7 7 6 6 6
Wind_Direction
273 274 280 278 272 258 266 271 275 282 280 253 248 250 260 272 251 270 330 286 256 265 254 261 264 265 267 265 270 321 338 325 302 290 279 263 237 213 194 188 187 192 191 190 186 184 184 181 179 179 179 180 179 175 177 179 181 181 175 175 177 180 183 187 189 185 186 190 193 192 191 189 193 195 197 198 199 200 201 206 210 214 214 213 211 212 213
273 268 259 252 263 271 262 256 260 260 267 265 253 260 256 244 243 259 272 286 286 314 315 336 321 329 321 315 337 320 310 302 308 296 275 260 255 244 217 194 197 196 195 189 184 180 175 182 179 179 178 177 175 174 178 181 182 181 174 178 177 182 185 188 185 180 182 186 188 189 188 189 190 193 196 197 198 200 203 206 209 211 214 213 214 212 211
266 263 252 244 254 260 267 263 260 258 260 266 261 262 265 258 249 248 256 263 282 269 351 318 306 309 316 311 307 326 330 323 310 294 271 257 247 242 231 211 198 198 195 189 180 175 181 182 177 180 178 176 179 182 181 179 179 179 176 171 177 183 188 187 182 181 183 187 185 189 190 190 189 193 196 197 201 204 206 208 210 208 207 211 214 216 215
277 248 242 234 231 258 271 269 257 247 238 233 232 254 342 281 261 263 247 259 256 33 334 314 285 275 307 325 330 326 324 316 307 289 279 271 256 245 242 230 209 200 195 182 175 181 185 185 181 179 172 173 175 183 181 182 180 178 179 181 184 185 187 178 179 182 186 186 188 191 189 192 192 195 196 200 201 202 204 206 206 207 209 211 216 219 219
266 247 142 267 272 266 258 244 228 220 199 197 172 205 18 26 297 253 233 248 16 318 330 311 278 240 199 310 317 313 304 299 293 284 278 272 263 250 237 232 220 207 196 184 182 185 184 183 183 184 175 175 179 181 176 178 174 179 182 184 184 184 185 179 181 182 182 186 187 189 191 192 193 193 197 200 202 203 207 208 207 209 213 213 215 216 218
271 78 262 258 247 232 234 35 146 184 179 178 154 142 17 39 11 329 318 313 323 330 321 315 303 279 297 341 333 323 321 315 305 298 292 285 275 263 250 236 221 206 193 188 184 181 180 182 183 179 176 179 176 173 165 158 170 176 175 178 177 180 182 181 182 182 184 185 188 191 190 190 192 194 197 201 202 203 206 205 207 209 210 214 216 215 217
264 295 279 225 226 229 78 71 59 195 137 105 130 128 60 33 16 1 346 340 331 321 313 300 288 287 284 297 349 334 332 325 313 306 303 301 294 270 251 231 216 192 178 180 176 173 179 178 168 163 167 169 160 162 158 168 174 168 169 172 174 179 182 182 181 184 185 188 190 190 189 190 192 196 198 200 201 203 205 207 207 208 211 214 216 217 217
273 274 217 211 215 56 228 57 40 27 191 339 157 134 65 37 23 359 344 333 327 321 315 305 296 272 269 269 295 358 341 339 325 315 309 309 308 286 250 220 203 188 186 182 181 179 177 170 174 170 171 172 171 169 167 169 171 172 172 176 178 180 183 185 187 186 186 188 190 190 190 191 194 197 199 199 200 200 206 211 213 213 213 217 217 217 218
237 234 216 225 358 304 191 211 42 11 15 330 257 189 91 40 18 2 340 335 335 332 322 313 302 289 268 253 246 5 347 339 331 320 314 316 311 296 266 215 194 169 167 159 168 150 161 171 169 170 168 169 166 162 166 170 167 170 174 178 182 185 189 188 188 188 189 189 189 191 190 192 196 198 198 200 202 201 205 211 212 212 215 214 217 220 221
232 261 251 225 230 216 174 98 27 324 304 297 286 309 128 30 12 1 349 341 338 334 328 320 314 293 254 258 323 352 343 338 335 334 334 330 329 319 283 201 158 153 154 149 142 159 158 166 164 159 160 161 157 158 167 165 165 170 178 185 186 186 189 189 188 188 188 189 190 190 191 195 196 199 201 203 204 200 204 208 213 215 215 218 219 220 221
240 236 242 210 192 177 69 1 333 329 306 269 257 244 174 27 3 358 350 340 340 334 327 320 316 248 244 322 353 344 331 331 351 348 351 351 350 347 339 215 166 161 149 152 150 149 153 157 153 147 152 156 156 162 164 167 174 180 185 187 187 187 188 187 187 187 188 190 191 191 193 195 197 200 201 202 203 200 205 209 215 216 217 219 219 219 221
243 243 233 225 219 242 345 340 333 333 320 266 228 215 190 7 3 352 348 340 344 342 333 330 29 31 15 351 338 321 319 330 10 358 360 5 4 6 5 6 161 141 133 131 148 153 161 160 155 157 156 161 167 168 170 171 178 185 188 189 187 186 186 187 188 188 188 189 191 193 194 196 198 200 199 201 202 201 204 207 211 216 215 217 219 221 221
236 240 244 273 275 100 356 330 324 329 320 217 207 199 67 336 12 348 342 334 341 335 342 349 21 8 352 327 313 313 322 7 2 358 7 23 22 19 16 21 38 147 152 154 159 165 161 151 156 161 163 165 166 164 165 176 186 191 186 182 179 181 183 186 187 189 190 191 192 196 198 198 198 200 199 201 201 201 204 207 211 215 217 218 222 225 225
234 232 235 243 302 42 349 327 328 356 279 192 175 70 78 25 19 341 332 337 344 338 341 347 346 337 335 333 304 325 5 359 0 0 11 20 32 33 34 31 30 77 151 154 156 155 153 159 163 162 162 163 163 164 171 186 193 185 175 171 171 173 176 183 187 189 191 192 193 198 200 197 195 199 201 203 203 203 206 207 208 212 212 217 220 225 226
236 231 231 231 232 48 2 331 334 17 18 44 12 86 61 44 30 341 338 348 340 343 336 341 337 331 333 331 343 6 350 1 3 2 8 15 26 29 30 32 29 41 73 99 139 155 163 165 165 167 168 166 169 172 186 192 181 175 167 171 173 177 180 187 189 190 192 189 189 196 196 196 193 195 195 197 199 198 199 203 208 213 219 225 228 230 234
220 201 202 131 359 354 359 17 75 46 43 356 10 5 23 39 38 353 331 344 346 339 331 328 336 330 328 334 0 357 360 358 357 3 8 10 15 15 28 40 38 41 65 75 95 129 153 162 164 165 168 166 172 179 188 168 164 161 160 168 168 176 178 184 185 188 191 191 192 197 196 192 193 196 197 196 198 201 207 208 210 221 227 226 230 235 237
284 329 35 35 12 17 17 44 92 96 42 22 10 24 26 28 23 344 340 337 336 337 331 330 336 329 343 353 350 354 356 355 357 4 1 4 10 13 18 25 32 52 62 78 85 80 80 111 132 152 164 165 168 173 151 144 162 166 166 165 170 177 181 185 187 192 192 194 195 196 195 190 191 197 199 197 203 211 214 217 218 226 229 227 225 229 233
309 268 269 10 13 353 65 56 67 74 34 7 359 1 5 19 0 354 347 332 331 332 338 338 332 341 342 355 354 355 5 1 0 1 3 6 10 12 16 18 9 27 63 70 76 77 68 70 89 105 137 152 152 133 134 157 164 166 165 168 174 181 184 185 187 189 191 195 196 196 195 195 197 199 199 197 200 202 212 215 217 222 227 225 226 228 233
313 132 36 15 352 329 172 117 119 88 62 358 343 340 347 346 346 342 341 337 326 330 334 342 332 332 346 355 359 353 6 11 7 3 359 2 3 11 14 14 14 12 24 47 55 64 64 53 70 83 80 84 107 130 148 160 162 157 163 169 176 174 181 182 185 190 194 198 199 199 199 200 201 201 200 199 198 198 205 208 218 222 226 227 229 230 231
338 340 350 360 336 310 147 156 138 284 354 340 325 309 312 328 336 337 331 334 333 334 336 342 338 333 344 2 1 357 3 6 4 359 358 1 0 0 6 12 19 22 23 32 41 49 52 50 56 63 70 83 113 140 153 154 155 160 162 169 175 185 184 178 180 187 195 191 191 196 197 198 202 203 203 203 203 200 203 203 217 222 224 229 228 226 229
300 281 17 354 332 184 153 195 246 309 320 325 310 297 309 322 334 327 327 334 328 326 327 338 342 336 338 2 2 3 2 3 4 0 354 0 2 3 5 5 17 30 23 26 33 42 42 42 48 54 55 55 49 78 122 148 154 163 167 172 172 172 175 175 185 185 197 188 196 196 191 176 72 28 252 220 214 213 210 206 204 206 211 213 211 213 217
17 14 340 345 338 324 297 292 295 305 310 305 301 300 299 315 319 327 324 321 328 315 319 340 345 340 331 344 357 3 7 360 1 3 356 357 360 3 5 4 16 24 30 25 29 32 33 32 40 44 43 38 37 36 38 76 126 132 143 149 148 157 167 176 180 183 191 196 199 199 180 151 134 103 55 62 26 327 213 59 15 254 228 217 220 216 221
320 326 330 332 312 284 274 285 295 292 294 296 293 293 287 283 291 290 292 304 313 312 315 329 346 341 333 335 348 355 9 360 5 8 358 356 358 3 3 7 11 18 23 24 21 22 16 20 32 33 32 24 24 23 20 21 44 109 127 127 128 138 157 167 168 172 177 187 193 169 157 151 158 155 140 70 47 38 27 24 21 9 341 311 311 289 222
315 336 325 318 301 287 287 290 289 290 289 286 283 279 271 266 270 280 283 281 288 295 303 316 344 341 333 333 344 348 355 2 5 11 2 4 8 4 7 13 14 14 14 20 27 21 13 16 23 25 28 21 11 10 9 9 11 37 81 125 126 127 134 132 136 156 162 175 188 171 149 159 162 166 157 144 90 38 36 47 54 48 35 15 356 330 281
332 322 313 309 299 288 283 281 285 288 291 285 283 281 277 275 266 261 271 277 279 284 294 308 326 344 337 334 337 344 344 355 9 10 7 11 8 8 1 7 13 9 7 10 24 20 17 19 24 24 26 15 6 3 359 1 4 41 58 81 106 110 122 142 147 156 160 165 171 176 180 182 188 185 177 166 140 112 48 57 68 60 44 33 29 32 60
336 333 323 314 298 300 302 306 295 298 305 295 272 273 277 280 279 272 264 260 268 277 288 301 315 338 345 337 335 336 337 347 9 15 12 10 3 8 3 353 357 4 10 21 27 23 16 16 20 27 26 11 2 355 353 354 9 36 54 71 91 111 130 152 158 159 165 168 170 176 180 187 192 194 193 179 157 144 137 136 87 66 55 40 30 53 63
351 350 345 345 348 343 339 331 314 312 307 302 292 280 271 257 265 270 266 258 260 264 263 275 300 323 333 338 332 333 331 331 358 27 15 8 7 357 353 341 343 355 8 18 21 17 9 9 18 25 24 10 354 351 348 337 356 47 77 91 99 80 71 95 155 153 158 161 167 171 179 184 189 191 188 160 136 153 162 155 131 86 60 39 32 34 82
357 360 3 355 331 326 321 318 316 320 317 307 303 294 286 277 255 253 254 260 264 258 248 262 291 312 325 329 338 328 326 334 337 353 11 7 358 352 343 354 359 354 7 17 15 9 8 10 9 21 22 6 357 351 349 334 349 55 56 67 77 87 103 103 116 148 150 156 160 167 173 180 180 180 155 140 145 142 120 97 98 103 82 65 75 64 76
356 357 354 351 336 331 324 318 337 343 335 325 311 296 290 286 276 255 249 247 249 237 259 273 284 290 299 307 325 317 313 322 333 337 345 353 355 359 355 351 4 18 19 18 13 9 4 4 7 13 21 0 350 353 350 347 344 37 39 45 59 78 91 95 103 115 118 136 149 134 123 143 157 132 109 103 103 112 109 107 106 105 110 119 112 94 81
353 353 353 353 350 354 356 356 345 340 341 340 330 309 292 287 284 263 241 233 239 244 247 263 269 281 285 290 298 317 330 323 320 331 335 340 347 2 6 358 357 22 21 17 7 0 3 1 359 6 8 5 1 2 360 3 16 30 39 32 32 29 63 79 97 94 103 106 107 101 106 99 85 90 101 102 105 109 112 116 122 123 125 125 122 122 119
351 353 356 355 355 357 0 352 342 341 342 341 343 326 311 276 275 294 272 227 217 244 258 255 274 282 283 283 288 298 302 307 320 333 332 331 343 357 12 13 16 14 10 0 353 355 357 1 5 2 351 354 6 16 14 15 15 20 40 47 55 36 28 37 57 91 103 110 115 117 109 109 107 104 102 98 100 95 113 128 124 117 118 124 126 122 122
355 355 357 1 0 358 359 359 354 350 346 347 357 2 349 328 296 236 222 281 304 281 266 273 271 273 279 285 285 289 311 313 321 323 323 330 343 354 11 21 18 10 1 351 352 356 360 360 8 359 351 353 359 13 27 29 29 38 39 34 35 44 21 11 82 74 97 100 107 107 109 111 109 111 113 103 94 93 76 78 102 116 123 120 114 112 118
1 357 4 1 357 357 357 358 358 355 352 350 3 13 12 344 298 268 218 206 250 249 243 250 259 262 260 256 274 298 302 311 294 311 335 341 345 357 9 15 27 22 5 359 352 353 360 359 352 354 354 359 6 13 21 35 42 51 52 49 53 44 40 30 34 81 77 100 110 112 105 91 98 110 101 102 114 116 103 91 73 69 92 96 92 83 76
10 12 5 3 4 357 349 346 354 357 352 356 5 16 15 18 5 306 291 267 230 252 270 285 284 271 236 191 137 2 324 318 311 346 346 343 340 344 357 360 15 30 28 8 360 1 357 353 352 353 349 1 19 29 28 31 41 56 60 65 65 61 63 62 43 65 75 89 89 76 78 79 77 90 99 102 109 115 113 110 104 92 81 83 83 86 81
12 13 11 9 7 6 4 359 353 356 356 356 5 15 21 17 16 19 22 14 357 334 314 305 77 113 107 99 78 69 59 54 7 358 347 341 342 342 339 357 10 21 29 32 15 3 350 348 354 346 348 6 20 31 38 38 50 68 73 74 81 80 70 58 57 63 74 78 84 85 77 71 71 74 81 86 92 97 101 103 107 106 101 97 91 85 82
6 12 12 10 10 11 11 8 6 4 9 12 12 17 22 25 24 20 23 25 24 30 52 69 74 71 57 48 44 32 26 23 21 14 4 359 352 334 2 14 11 17 14 25 23 1 350 351 358 359 354 8 14 28 29 31 60 68 76 84 91 91 82 75 70 68 63 71 75 79 79 80 79 76 75 74 72 74 85 97 101 99 101 100 96 89 83
357 7 11 13 12 14 15 14 13 13 14 13 14 18 24 25 26 29 31 29 26 31 36 49 60 61 60 53 48 39 31 23 21 16 12 3 3 15 27 26 20 9 2 6 4 351 349 355 356 359 7 13 16 26 23 19 56 64 78 77 86 95 95 90 85 84 77 80 84 82 81 76 70 69 65 64 58 55 61 72 77 85 91 94 96 96 92
338 357 4 14 16 17 20 20 21 22 20 19 17 17 24 24 25 31 37 38 36 32 38 47 53 59 61 57 49 41 30 23 21 23 23 21 17 28 36 33 25 13 9 351 337 346 349 356 356 7 25 32 32 34 35 29 43 71 81 82 92 91 89 93 93 90 88 86 85 87 84 81 77 70 65 60 57 57 58 58 65 72 78 83 88 87 86
341 352 6 9 19 23 23 24 26 28 29 27 20 17 21 25 26 32 36 34 33 37 37 42 48 52 52 53 51 45 37 29 29 28 28 27 30 35 36 30 22 14 357 350 359 357 11 18 12 10 22 38 38 38 46 45 47 79 93 94 94 93 90 91 92 92 89 91 92 88 85 83 80 79 75 72 68 65 65 61 57 56 59 66 76 79 79
330 343 351 3 17 21 24 26 27 29 32 34 32 26 18 21 21 32 35 35 32 36 36 35 44 47 45 47 49 47 43 43 38 35 36 36 34 33 33 28 19 6 1 5 7 17 32 31 27 23 15 14 21 38 43 53 66 78 96 102 102 100 98 95 93 92 90 91 90 90 89 87 84 81 81 79 75 71 68 63 60 57 54 54 63 73 78
320 326 336 360 11 18 25 24 27 30 31 32 34 33 26 28 31 34 31 30 31 38 43 44 39 36 35 41 46 47 49 48 44 41 35 38 36 34 34 27 3 7 9 12 14 18 31 40 40 28 21 29 25 29 32 35 49 68 74 81 95 104 105 100 100 99 99 95 91 91 95 96 91 88 85 83 83 81 77 72 69 63 60 56 53 59 72
309 283 321 358 21 17 21 28 28 31 29 30 36 37 36 36 38 39 35 33 31 29 34 40 46 45 41 40 40 36 28 33 47 47 43 44 36 29 30 25 1 6 26 26 24 28 30 36 42 45 40 33 47 51 51 50 55 59 70 78 89 91 94 96 98 98 97 96 96 96 93 92 96 98 97 96 93 89 85 80 74 67 62 58 56 54 56
32 357 336 14 36 24 23 32 32 31 31 23 25 34 35 38 37 35 33 34 35 31 29 29 33 37 38 35 37 41 38 24 27 41 51 48 42 38 38 28 11 21 28 28 22 15 29 42 50 55 62 63 64 64 63 62 60 59 67 72 77 82 84 84 90 91 91 89 87 86 86 91 97 102 106 105 107 109 113 112 114 109 98 88 78 68 58
92 83 15 32 41 37 30 36 40 37 35 28 20 31 37 40 38 41 43 40 39 38 34 29 30 32 34 38 40 38 33 34 34 23 34 46 45 37 29 32 28 35 39 31 21 24 35 50 55 68 72 73 70 68 65 68 71 72 72 73 75 80 81 82 81 83 81 81 82 83 85 85 86 87 88 86 85 84 81 77 69 68 85 103 116 119 112
30 83 70 43 59 53 48 41 42 43 44 42 34 32 37 43 47 44 44 45 45 42 39 35 29 25 27 33 39 40 40 35 33 29 33 39 44 39 23 33 39 40 42 43 37 35 35 46 60 62 61 63 65 66 66 68 71 73 75 76 78 80 82 82 84 83 82 83 83 85 82 82 83 84 85 84 83 79 75 74 74 72 73 62 47 41 70
27 64 100 192 198 98 62 49 51 49 49 50 52 46 40 41 47 51 49 48 48 45 43 42 42 38 33 33 32 34 42 40 36 36 39 40 46 39 36 44 45 49 47 44 38 36 39 47 48 50 54 55 55 54 56 62 68 67 69 73 74 75 76 75 81 82 74 77 78 83 89 86 82 79 81 84 85 85 86 85 85 83 80 78 78 76 63
20 26 65 125 179 191 178 46 67 56 54 54 52 50 42 41 43 49 53 51 48 45 42 39 40 39 39 39 36 34 35 42 43 33 35 32 42 48 44 44 44 46 47 45 42 39 37 37 42 45 46 47 48 52 54 55 54 56 57 58 66 74 78 80 82 85 84 78 76 77 78 82 86 91 88 85 85 85 87 86 86 88 88 88 89 87 84
44 28 32 26 71 152 199 213 146 84 67 58 59 64 63 54 49 45 47 51 49 47 47 44 39 35 34 34 35 38 35 37 52 43 25 31 30 42 47 47 48 46 43 42 42 40 39 38 38 38 41 44 42 42 48 50 51 53 56 59 57 57 57 64 71 78 83 88 82 82 85 83 82 82 83 84 84 83 85 87 87 81 78 77 77 76 76
83 99 119 194 196 178 190 211 196 140 120 119 102 81 78 78 71 62 55 51 48 44 42 44 45 43 38 36 39 42 43 38 46 51 34 35 40 46 48 49 48 46 44 44 39 37 39 39 40 41 39 38 38 41 42 44 47 51 54 57 60 60 61 62 61 65 69 72 75 78 79 80 81 81 82 80 80 81 83 82 81 82 84 84 83 79 77
26 149 152 98 75 35 309 276 253 150 147 146 126 122 96 73 74 70 69 61 60 56 47 37 34 37 42 41 36 40 40 47 48 47 41 42 46 46 48 51 51 51 50 48 46 40 41 38 36 43 42 38 39 40 43 50 55 57 60 62 64 66 68 72 71 71 74 76 77 77 77 77 79 81 82 83 83 84 84 83 82 84 87 89 92 93 91
14 23 36 38 21 40 40 355 335 302 167 123 125 120 95 58 67 69 67 72 67 65 60 51 37 31 34 47 49 43 41 46 52 54 55 52 53 57 55 53 53 53 51 46 45 44 42 45 41 36 39 40 42 45 42 41 41 45 48 53 59 68 71 70 73 75 70 72 73 73 72 75 75 78 79 82 82 84 83 84 84 81 76 78 80 81 82
26 40 54 69 59 57 58 54 52 86 102 114 87 61 57 53 56 61 71 75 68 74 72 66 53 35 30 41 55 62 58 57 57 54 53 57 58 52 53 54 52 54 51 46 42 43 46 47 48 46 43 41 45 48 50 48 44 44 44 45 44 43 43 43 48 51 53 56 61 62 60 61 63 69 69 72 73 74 72 72 71 72 70 67 65 65 68